Location: Big Sandy
(43.9561°N, 77.3530°W)
Time: 19:04:50
(UTC+00:00)

Daily predictions for brighter satellites

Satellite Brightness Start Highest point End
(mag) Time Altitude Azimuth Time Altitude Azimuth Time Altitude Azimuth
Cosmos 909 Rocket 4.1 22:13:32 10° NNW 22:19:53 87° ENE 22:26:27 10° SSE
Cosmos 1733 Rocket 4.1 22:16:10 10° SSW 22:20:20 49° WNW 22:24:32 10° N
Cosmos 1484 Rocket 3.9 22:18:51 10° S 22:22:10 44° W 22:25:33 10° NNW
SAR-Lupe-3 4.3 22:20:26 10° NNE 22:22:59 38° E 22:25:31 10° S
Cosmos 2100 Rocket 4.1 22:19:05 10° S 22:25:18 88° W 22:31:31 10° N
Cosmos 1603 4.1 22:21:03 10° NNW 22:26:43 70° WSW 22:32:18 10° SSE
ATLAS 5 CENTAUR R/B 3.2 22:25:38 10° N 22:28:32 18° NE 22:31:49 10° E
Iridium 4 Rocket 3.5 22:24:10 10° S 22:29:37 86° E 22:34:38 10° N
IGS 5A 3.8 22:26:49 10° S 22:30:46 66° W 22:34:45 10° NNW
Cosmos 2061 Rocket 4.5 22:25:16 10° SSE 22:31:05 40° E 22:36:51 10° NNE
BREEZE-M DEB (TANK) 3.7 22:30:37 10° S 22:32:39 25° SE 22:35:57 11° ENE
Cosmos 1340 Rocket 3.2 22:29:28 10° SSW 22:33:18 65° WNW 22:37:09 10° N
Cosmos 2221 Rocket 3.5 22:28:48 10° N 22:33:18 71° E 22:37:45 10° SSE
Meteor 2-17 Rocket 4.5 22:28:50 10° N 22:35:01 88° E 22:41:10 10° S
ARIANE 5 R/B 2.4 22:32:40 10° SSE 22:37:38 77° ENE 22:42:37 10° N
Cosmos 1459 Rocket 4.2 22:31:45 10° SSW 22:37:58 78° W 22:44:21 10° N
ARIANE 6 FM1 Upper Stage 4.0 22:34:36 10° WSW 22:38:16 33° NW 22:41:54 10° NNE
SAR-Lupe-1 3.9 22:35:55 10° SSE 22:39:27 81° ENE 22:43:01 10° N
BREEZE-M DEB (TANK) 2.4 22:38:38 10° SW 22:40:41 50° SE 22:43:54 13° ENE
CZ-2D R/B 2.6 22:38:46 10° SSE 22:41:56 78° ENE 22:45:06 10° N
CZ-2D R/B 4.2 22:39:15 10° SE 22:42:45 29° ENE 22:46:20 10° N
Cosmos 1864 Rocket 4.5 22:37:48 10° S 22:43:56 88° E 22:50:09 10° N
Geosat FO 4.3 22:42:37 10° SSE 22:45:33 71° WSW 22:48:27 10° NNW
SPOT 1/Viking Rocket 4.0 22:41:12 10° SE 22:45:54 37° ENE 22:50:38 10° N
UNK 4.3 22:41:48 10° N 22:46:22 62° WNW 22:50:54 10° SSW
Cosmos 921 Rocket 2.9 22:46:51 10° SSW 22:51:08 85° ESE 22:55:32 10° NNE
ATLAS CENTAUR R/B 1.1 22:47:44 10° SW 22:51:09 68° NW 22:54:34 11° NNE
SL-4 R/B 1.9 22:48:25 10° NW 22:51:48 50° NNE 22:54:11 18° E
Cosmos 1441 Rocket 2.8 22:48:30 10° N 22:51:49 62° ENE 22:55:08 10° SSE
Cosmos 1725 Rocket 4.1 22:48:59 10° S 22:55:14 85° W 23:01:34 10° N
AQUARIUS 4.0 22:52:56 10° SSE 22:57:20 85° ENE 23:01:46 10° NNW
Cosmos 1025 Rocket 3.8 22:54:11 10° NNW 22:58:26 55° W 23:02:36 10° S
Cosmos 2082 Rocket 3.8 22:56:11 10° N 22:59:02 14° NE 22:59:36 14° NE
IRS-P3 4.1 22:54:45 10° SSE 23:00:04 86° ENE 23:05:26 10° NNW
Resurs 1-3 4.3 22:56:42 10° SE 23:00:28 31° ENE 23:04:16 10° N
SL-19 R/B 4.5 22:57:25 10° SE 23:02:19 40° ENE 23:07:10 10° N
Cosmos 2278 Rocket 3.4 22:58:42 10° SE 23:02:38 20° E 23:03:25 19° E
Cosmos 2233 Rocket 4.0 22:56:39 10° S 23:02:54 77° E 23:09:14 10° N
NOSS 3-4 (A) 4.1 22:58:01 10° NW 23:04:57 79° WSW 23:13:06 10° SSE
NOSS 3-4 (C) 4.1 22:58:06 10° NW 23:05:02 79° SW 23:13:10 10° SSE
Tiangong -1.0 23:02:13 10° W 23:05:13 39° SSW 23:07:10 18° SE
YAOGAN 1 3.0 23:01:35 10° SE 23:05:29 37° ENE 23:09:25 10° N
DNEPR-1 R/B 3.9 23:01:32 10° NNW 23:05:52 50° NE 23:10:31 12° SE
MOS 1 Rocket 2.9 23:04:09 10° SSE 23:08:23 76° ENE 23:12:43 10° N
RESURS DK-1 4.5 23:09:21 10° NNE 23:09:56 11° NNE 23:09:56 11° NNE
Cosmos 1023 Rocket 4.5 23:06:14 10° S 23:11:19 61° ESE 23:16:24 10° NNE
USA 281 4.1 23:08:24 20° E 23:11:29 28° NE 23:16:54 10° N
COSMO-SKYMED 1 2.7 23:08:34 10° NNE 23:12:33 44° E 23:16:29 10° S
SL-16 R/B 4.4 23:09:19 10° N 23:14:31 28° WNW 23:19:42 10° WSW
Aureole 3 Rocket 4.5 23:13:13 10° SSE 23:13:59 14° SE 23:13:59 14° SE
Spot 4 Rocket 3.9 23:14:21 10° SSE 23:19:22 64° ENE 23:24:25 10° N
Cosmos 407 Rocket 4.1 23:15:09 10° SSE 23:19:49 34° ESE 23:21:25 28° ENE
Cosmos 2084 Rocket 3.3 23:17:59 10° SSW 23:22:07 68° SE 23:23:55 32° NE
Cosmos 1943 Rocket 2.8 23:20:59 10° SSE 23:25:53 32° ESE 23:26:39 30° E
Tsikada Rocket 4.3 23:20:46 10° NNW 23:27:11 75° W 23:33:32 10° S
ATLAS 2AS CENTAUR R/B 4.5 23:24:11 10° NNW 23:27:50 15° N 23:30:22 12° NNE
Helios 1A Rocket 2.3 23:29:18 27° NNE 23:31:03 87° ESE 23:34:25 10° SSW
Cosmos 1782 Rocket 4.2 23:28:04 10° SSW 23:32:25 56° W 23:36:48 10° N
SL-12 R/B(2) 4.3 23:29:11 10° SSW 23:36:44 60° ESE 23:43:34 19° NE
CZ-4C R/B 3.7 23:34:05 10° W 23:37:49 24° NNW 23:42:13 11° NNE
Meteor 2-12 Rocket 4.3 23:33:28 10° N 23:39:36 78° E 23:45:40 10° SSE
NOAA 6 3.9 23:36:14 10° SSE 23:41:19 65° ENE 23:46:25 10° N
Cosmos 1269 Rocket 4.2 23:36:11 10° SSW 23:41:25 70° WNW 23:46:40 10° NNE
TIMED 4.3 23:44:13 10° SSW 23:48:28 89° W 23:49:38 48° NNE
SKYMED 2 4.4 23:44:41 10° N 23:48:54 51° WNW 23:53:06 10° SSW
Cosmos 1869 3.0 23:46:02 10° S 23:49:31 79° WSW 23:49:31 79° WSW
PSLV R/B 3.6 23:46:33 10° S 23:50:37 71° WSW 23:54:40 10° NNW
Cosmos 1833 Rocket 2.9 23:46:49 10° NNW 23:52:27 70° WSW 23:58:02 10° SSE
Cosmos 1975 Rocket 3.8 23:50:14 10° NNW 23:54:26 52° W 23:58:38 10° S
